Location: Unspecified
(0.0000°N, 0.0000°E)
Time: 05:31:25
(UTC+00:00)

Explorer 7 - Pass Details

Date: 02 October 2020
Orbit: 484 x 678 km, 50.3° (Epoch: 28 October)

Event Time Altitude Azimuth Distance (km) Brightness Sun altitude
Rises 09:37:22 0° 292° (WNW) 2,962 10.2 56.8°
Reaches altitude 10° 09:40:36 10° 270° (W) 2,021 9.5 57.6°
Maximum altitude 09:43:21 16° 234° (SW) 1,653 9.2 58.3°
Drops below altitude 10° 09:46:03 10° 197° (SSW) 1,956 9.7 59.0°
Sets 09:49:06 0° 174° (S) 2,815 10.5 59.7°
